Wind_Speed
43 44 44 43 43 43 43 43 44 44 43 44 45 46 47 47 48 48 48 49 49 50 51 52 52 52 53 54 55 56 57 58 59 60 60 61 61 61
45 45 44 44 44 44 44 44 45 45 45 45 46 46 47 48 48 48 49 49 51 51 51 52 52 53 54 55 56 57 58 59 60 61 61 61 61 61
46 46 45 45 45 45 45 45 46 46 46 46 46 47 47 48 49 49 50 51 51 51 52 52 53 54 55 56 57 59 60 61 61 62 62 62 62 61
47 47 46 46 46 46 46 46 47 47 47 47 47 47 47 48 49 50 51 52 52 52 53 53 54 55 56 58 59 60 61 62 63 63 63 62 61 59
48 47 47 47 47 47 47 47 47 47 48 48 47 47 48 49 50 50 51 52 52 53 53 54 55 56 58 59 61 62 62 63 63 62 61 60 58 55
49 49 48 48 48 48 48 47 48 48 48 48 48 48 49 50 51 51 51 52 52 53 54 55 56 57 59 61 62 63 62 62 62 60 59 58 55 52
49 49 48 48 48 49 49 48 49 49 49 49 49 49 50 51 52 52 52 53 53 53 54 56 58 59 60 62 62 62 61 61 60 59 57 55 52 49
48 48 49 48 49 49 49 50 50 50 50 50 50 51 51 52 52 52 52 53 53 54 55 57 59 60 61 62 61 60 60 60 60 58 55 52 50 48
49 49 49 49 49 49 50 50 50 50 51 51 51 51 52 52 53 52 52 53 54 55 57 59 60 61 61 61 59 59 60 60 58 55 52 50 48 46
50 50 50 49 49 49 49 49 50 50 50 50 51 51 52 52 52 52 52 53 55 56 58 60 60 61 60 59 59 59 59 58 56 53 51 48 46 44
49 50 50 49 49 50 50 50 50 49 49 50 50 51 51 52 51 51 52 53 55 57 59 60 59 59 58 58 59 58 57 55 53 50 48 45 44 42
49 48 49 49 49 50 50 50 50 50 50 50 51 51 51 51 50 51 52 54 56 58 59 59 58 57 56 57 57 56 55 53 50 47 45 43 42 40
49 49 50 50 50 50 50 49 49 49 50 50 51 50 50 50 50 51 53 55 57 58 58 57 57 56 56 55 55 54 52 49 46 44 43 41 40 38
51 50 50 50 50 50 50 49 49 49 50 50 50 50 50 51 51 52 54 55 57 57 57 56 55 55 54 53 52 50 48 46 44 43 42 40 38 36
50 50 51 50 50 50 49 49 49 49 49 49 49 49 50 50 51 52 53 55 55 54 54 53 52 52 51 50 49 47 45 43 42 42 41 38 36 34
49 49 49 48 48 48 47 47 48 48 48 48 48 49 50 50 50 51 52 52 52 52 52 51 50 49 48 48 47 45 43 41 41 40 39 36 33 31
46 46 45 45 46 46 45 46 47 47 47 47 47 48 48 48 49 50 50 50 50 50 49 48 47 46 46 46 45 43 41 40 39 38 36 34 31 29
44 44 44 43 43 43 44 45 45 45 46 46 46 46 47 47 47 47 47 48 48 47 46 46 45 45 45 45 44 42 40 39 37 36 33 31 29 27
41 42 42 42 42 42 42 43 44 44 45 44 44 44 44 44 44 45 46 46 46 45 44 44 44 44 44 42 41 40 39 37 35 33 31 29 27 25
40 40 40 41 41 41 42 42 42 42 42 42 41 42 42 43 43 44 45 44 44 43 43 44 44 43 42 40 38 38 36 34 32 30 28 27 26 25
39 39 39 39 40 41 41 40 40 40 40 40 40 40 41 41 42 42 42 42 42 42 43 43 42 41 39 37 35 34 33 31 30 28 26 25 24 23
38 38 37 38 39 39 39 39 39 39 39 39 38 38 39 40 40 41 40 41 41 41 41 40 39 38 35 33 32 31 30 29 28 26 25 23 22 20
36 36 36 36 37 37 37 37 37 37 37 37 37 37 38 38 39 39 39 39 39 38 38 38 37 35 33 31 30 29 28 27 26 25 23 22 20 19
Wind_Direction
276 278 280 282 283 285 287 289 291 292 293 293 293 294 295 296 297 297 298 299 299 300 301 302 302 302 303 303 303 303 302 301 301 301 300 299 297 296
276 278 280 282 283 285 287 289 290 292 293 294 293 293 294 295 296 297 298 298 300 300 301 302 302 303 303 303 303 304 303 303 303 302 301 300 299 297
275 277 280 281 283 285 286 288 290 291 292 293 293 293 294 295 296 297 298 299 300 301 302 302 303 304 304 304 304 304 304 304 303 303 302 301 299 298
275 277 279 281 283 284 286 288 289 290 291 292 293 293 294 295 296 297 298 299 300 301 301 302 303 304 304 305 305 306 305 305 305 304 303 302 300 298
275 277 278 280 282 283 285 286 288 289 290 291 292 293 293 294 295 296 298 300 301 301 302 303 304 305 306 306 307 307 307 306 306 305 304 303 302 299
274 276 278 280 281 283 284 285 287 288 289 290 291 293 294 295 296 297 298 300 300 301 302 303 304 305 306 307 307 307 307 307 307 307 306 305 303 300
274 276 277 278 280 282 284 285 286 287 288 289 290 292 294 295 296 297 298 299 300 302 303 304 305 306 306 307 307 308 308 308 308 308 306 305 303 301
274 276 277 279 281 282 283 284 286 287 287 288 290 293 294 294 296 297 298 299 300 302 303 304 306 306 307 307 308 308 308 309 309 308 306 305 303 301
274 275 277 279 281 282 283 284 286 287 288 289 290 293 294 294 296 297 298 299 301 302 304 305 306 307 307 308 308 308 309 310 309 308 307 305 303 302
274 276 278 279 280 281 282 284 286 287 289 289 291 293 293 294 296 297 298 299 301 303 305 306 307 307 307 308 308 309 310 310 309 308 307 306 304 302
274 276 277 279 280 281 282 283 285 287 288 290 291 293 293 294 296 297 299 300 302 303 305 306 307 307 307 308 309 310 310 310 309 309 308 306 305 304
275 276 278 279 280 281 282 283 285 287 288 289 291 292 293 295 296 297 299 300 302 304 306 307 307 307 308 309 310 310 311 310 309 308 308 307 306 305
274 276 277 279 279 280 281 283 285 286 287 289 290 291 293 294 295 297 299 300 302 304 306 306 306 307 308 309 310 310 311 310 310 309 309 308 306 305
274 275 277 278 278 279 281 283 284 286 287 288 290 291 293 294 295 297 299 301 302 304 305 306 306 308 309 310 311 311 311 310 310 310 309 309 307 305
274 274 275 276 277 279 281 282 283 285 287 289 290 291 293 294 296 298 300 301 302 304 305 306 307 308 310 311 312 313 312 311 311 311 311 310 307 305
274 275 275 275 277 279 280 281 283 285 287 288 290 291 293 295 297 298 299 301 302 304 305 306 308 309 310 311 313 313 312 313 312 312 312 310 308 305
274 274 275 276 278 279 280 282 284 286 287 288 289 291 292 294 296 297 299 301 303 305 306 307 308 309 310 312 313 313 313 313 313 313 312 310 308 306
272 273 275 277 280 281 282 283 284 285 287 288 289 290 292 294 296 298 300 302 304 305 306 307 308 309 311 312 312 313 314 314 314 313 312 310 308 307
273 274 275 277 279 281 283 284 284 285 287 288 289 290 292 294 296 298 301 303 304 306 307 307 308 309 310 311 311 313 314 315 315 314 313 311 308 307
274 275 277 278 279 280 282 284 284 285 287 289 289 291 293 295 297 299 301 303 305 306 307 307 309 310 310 311 311 312 314 314 314 314 313 311 308 307
273 276 277 277 278 280 281 284 285 286 288 289 289 291 294 296 298 300 301 303 304 305 306 307 309 310 311 311 311 312 313 314 314 314 313 311 309 306
273 275 276 277 280 281 282 284 285 287 289 288 290 292 295 297 299 300 301 303 305 306 307 309 310 310 311 312 312 312 313 314 315 315 314 311 308 306
273 275 277 280 280 281 283 284 286 288 289 289 291 293 295 297 299 300 302 303 305 306 308 310 310 310 310 311 312 313 313 314 315 316 315 313 311 310
Height
5708 5706 5704 5702 5700 5697 5695 5692 5690 5687 5684 5680 5676 5671 5667 5663 5659 5654 5650 5645 5640 5635 5630 5624 5619 5613 5607 5601 5594 5587 5580 5573 5566 5559 5552 5545 5539 5532
5697 5695 5694 5692 5689 5687 5684 5681 5678 5675 5673 5670 5665 5661 5656 5652 5647 5643 5638 5633 5628 5623 5617 5612 5606 5600 5593 5587 5580 5573 5565 5558 5551 5543 5535 5528 5521 5513
5686 5684 5683 5680 5678 5676 5673 5670 5667 5664 5661 5658 5654 5649 5645 5640 5636 5631 5626 5621 5616 5610 5605 5599 5592 5586 5580 5573 5566 5558 5550 5542 5535 5527 5518 5510 5503 5495
5674 5673 5671 5669 5667 5664 5662 5659 5656 5652 5649 5646 5642 5638 5633 5629 5624 5619 5614 5609 5603 5598 5592 5585 5579 5572 5566 5558 5551 5543 5535 5526 5518 5509 5501 5493 5485 5477
5662 5661 5659 5657 5655 5653 5650 5647 5644 5641 5637 5634 5630 5626 5621 5617 5612 5607 5602 5596 5590 5585 5578 5572 5566 5559 5551 5544 5536 5527 5519 5510 5502 5492 5483 5475 5468 5461
5650 5648 5647 5645 5643 5640 5638 5635 5632 5628 5625 5621 5618 5614 5609 5605 5600 5595 5589 5584 5578 5572 5565 5559 5552 5545 5537 5529 5521 5512 5503 5494 5485 5476 5467 5459 5452 5445
5637 5636 5634 5632 5630 5628 5625 5622 5619 5616 5613 5609 5606 5601 5597 5592 5588 5582 5577 5571 5565 5558 5552 5545 5538 5531 5523 5514 5505 5496 5487 5478 5469 5460 5452 5444 5437 5431
5624 5623 5621 5619 5617 5615 5612 5610 5607 5604 5600 5597 5593 5589 5584 5579 5575 5569 5564 5558 5553 5547 5539 5532 5524 5516 5507 5499 5490 5481 5472 5463 5454 5446 5438 5430 5423 5417
5611 5610 5608 5606 5604 5602 5599 5597 5594 5591 5588 5584 5580 5576 5571 5567 5562 5557 5551 5544 5539 5532 5525 5518 5509 5501 5492 5483 5474 5466 5457 5448 5440 5431 5424 5417 5410 5404
5597 5596 5594 5593 5591 5589 5586 5583 5581 5578 5574 5571 5567 5563 5558 5553 5548 5543 5537 5532 5525 5518 5511 5504 5495 5486 5477 5468 5460 5451 5443 5434 5426 5418 5411 5404 5398 5392
5583 5582 5581 5579 5578 5575 5573 5570 5568 5565 5561 5557 5553 5549 5545 5540 5535 5530 5524 5518 5512 5505 5497 5489 5481 5473 5463 5454 5446 5437 5428 5420 5412 5405 5398 5392 5386 5380
5569 5568 5566 5565 5563 5561 5559 5557 5554 5552 5548 5544 5540 5536 5532 5527 5522 5517 5511 5505 5498 5492 5484 5475 5467 5458 5452 5442 5432 5424 5415 5407 5400 5393 5387 5381 5375 5369
5554 5553 5552 5551 5549 5547 5545 5543 5541 5538 5534 5531 5527 5523 5519 5514 5509 5503 5497 5491 5484 5477 5470 5461 5453 5444 5436 5429 5421 5411 5403 5395 5388 5382 5376 5370 5364 5359
5539 5539 5538 5536 5534 5532 5531 5529 5527 5524 5521 5517 5514 5510 5506 5501 5495 5490 5484 5477 5471 5464 5456 5447 5440 5432 5424 5416 5408 5400 5392 5385 5378 5372 5366 5360 5355 5350
5524 5523 5522 5521 5520 5518 5516 5514 5512 5510 5507 5504 5500 5496 5492 5487 5482 5476 5470 5464 5457 5450 5442 5434 5427 5419 5411 5404 5397 5390 5383 5375 5369 5363 5356 5351 5346 5341
5509 5508 5508 5507 5506 5504 5502 5500 5498 5496 5494 5490 5487 5483 5479 5474 5468 5463 5457 5450 5444 5437 5429 5422 5414 5407 5400 5393 5386 5379 5372 5366 5360 5353 5347 5342 5337 5332
5495 5495 5494 5494 5493 5491 5489 5487 5485 5483 5480 5477 5473 5470 5465 5460 5455 5450 5444 5438 5431 5425 5418 5411 5404 5397 5390 5383 5376 5369 5363 5357 5351 5345 5339 5333 5329 5325
5483 5482 5482 5481 5480 5478 5476 5474 5472 5470 5467 5464 5460 5456 5452 5447 5442 5437 5431 5426 5420 5413 5407 5400 5393 5387 5380 5373 5367 5361 5354 5348 5342 5336 5331 5326 5321 5317
5471 5470 5470 5469 5467 5466 5464 5462 5460 5457 5454 5450 5447 5443 5439 5435 5430 5425 5420 5414 5408 5402 5396 5390 5383 5377 5371 5365 5358 5351 5346 5340 5334 5328 5323 5319 5314 5311
5459 5458 5458 5456 5455 5453 5451 5449 5447 5444 5441 5438 5435 5431 5427 5423 5419 5414 5409 5403 5397 5391 5385 5379 5373 5367 5361 5355 5349 5343 5338 5333 5327 5322 5317 5312 5308 5304
5447 5447 5446 5444 5443 5441 5439 5437 5435 5432 5429 5426 5423 5420 5416 5412 5407 5403 5398 5392 5387 5381 5375 5369 5363 5358 5352 5346 5341 5336 5330 5325 5320 5316 5311 5307 5302 5299
5436 5435 5434 5432 5431 5429 5427 5425 5423 5420 5418 5415 5412 5409 5405 5401 5397 5392 5387 5382 5377 5371 5365 5360 5354 5349 5343 5338 5333 5328 5323 5318 5314 5309 5305 5301 5297 5293
5424 5423 5422 5421 5419 5418 5416 5414 5411 5409 5406 5404 5401 5398 5394 5390 5386 5381 5377 5372 5367 5361 5356 5351 5346 5340 5336 5331 5326 5322 5317 5312 5307 5303 5300 5295 5292 5288